Theta_e
325 327 329 331 334 336 336 339 343 347 347 348 347 345 341 338 337 334 332 334 334 335 336 335 335 336 335 333 332 331 330 328 327 329 328 328 328 329 330 331 330 327 328
327 327 330 331 336 336 339 342 345 349 349 347 347 346 342 338 336 334 332 333 336 336 335 333 333 334 333 333 332 330 329 328 327 327 327 327 327 327 328 329 330 330 329
325 326 325 336 338 339 341 342 345 349 348 347 345 343 339 337 335 334 333 334 334 335 334 333 333 332 332 332 331 330 329 328 327 326 324 325 326 324 327 328 329 330 328
324 324 324 336 339 340 340 340 344 347 346 345 341 339 338 337 336 335 334 335 335 335 332 332 331 332 330 330 330 329 329 328 328 328 327 326 327 324 325 328 329 329 328
324 324 324 338 339 340 341 344 345 344 341 340 339 337 334 334 335 335 334 336 335 334 333 333 332 331 330 330 329 329 328 329 328 327 328 327 326 326 323 324 327 329 328
322 330 338 339 339 341 343 343 343 341 340 337 335 334 335 337 334 336 336 335 334 334 334 333 331 331 330 329 330 330 329 329 328 328 329 329 325 323 323 321 324 325 329
328 339 339 338 338 340 341 341 340 340 337 338 335 336 335 334 336 336 335 335 335 333 334 332 330 330 330 330 330 330 328 329 329 329 329 328 328 328 323 325 324 326 330
337 338 338 337 338 340 340 340 340 337 337 337 335 335 335 334 336 336 335 335 333 334 332 330 330 331 332 331 329 329 328 329 328 329 329 328 328 328 328 327 327 329 330
338 338 336 336 339 339 339 340 338 336 337 335 335 335 335 336 334 334 334 333 334 329 330 330 331 332 332 330 329 329 330 330 328 329 328 328 328 328 325 328 328 327 330
337 337 336 337 338 338 339 339 337 337 337 335 334 334 335 335 335 334 332 333 331 332 330 332 333 332 331 331 331 330 329 328 326 328 328 327 328 329 329 325 327 328 326
336 336 337 337 338 338 337 338 337 336 336 334 333 333 333 333 334 333 332 332 331 331 332 332 332 331 332 331 329 330 329 326 326 324 326 328 329 330 328 328 324 329 328
336 336 336 336 336 336 338 337 336 335 335 333 334 333 334 334 332 333 331 330 330 329 329 331 331 331 331 331 330 328 327 329 327 325 327 326 329 330 330 329 330 328 327
336 336 336 335 334 335 336 336 334 334 334 334 333 334 333 332 333 333 331 329 330 329 330 331 330 331 331 331 331 331 330 329 328 328 328 328 329 329 329 329 328 327 326
336 336 335 334 334 334 334 334 333 333 332 333 334 334 332 333 333 332 331 329 329 329 330 331 331 331 329 329 330 330 331 332 329 328 328 328 329 327 327 328 327 326 326
336 336 335 334 333 332 332 332 332 332 332 332 335 333 333 332 332 332 332 332 328 330 331 331 330 329 328 329 329 330 331 331 331 330 328 327 327 328 326 326 327 326 325
336 335 335 334 333 331 330 331 332 331 333 335 335 333 331 332 333 333 332 331 328 331 331 329 329 329 328 328 329 331 331 332 330 327 327 328 328 328 328 327 327 325 324
336 335 335 334 332 329 330 330 330 330 334 335 334 332 331 332 332 332 331 330 331 331 330 329 329 328 327 329 331 331 331 331 330 328 328 329 329 329 328 327 325 325 323
335 335 334 333 329 329 329 330 329 329 334 334 334 333 333 333 333 333 331 331 330 330 331 330 328 326 327 328 331 331 331 330 330 329 328 328 328 328 326 325 325 325 323
333 333 334 331 329 329 329 329 328 328 333 334 334 334 333 333 332 333 332 330 330 330 331 329 326 325 327 329 331 331 330 330 330 328 329 328 327 327 326 325 324 324 324
333 334 334 330 328 328 329 329 328 328 330 333 334 333 332 333 332 332 331 331 331 331 331 329 325 325 327 329 331 331 331 330 330 329 327 326 327 326 326 325 324 323 324
333 335 333 329 328 328 329 329 327 327 329 333 333 333 333 334 333 333 333 331 331 330 330 328 327 326 326 329 330 330 329 328 327 326 325 325 326 326 325 325 324 324 324
334 334 332 330 329 328 328 328 327 327 329 333 333 333 333 334 333 333 332 332 330 329 329 328 328 326 326 329 330 330 328 327 326 325 325 325 325 325 325 325 324 324 324
332 335 332 330 330 328 328 329 327 326 329 333 333 334 334 333 332 333 334 332 331 329 328 328 328 326 326 327 330 329 329 327 326 326 325 325 325 325 325 325 324 324 324
333 334 332 330 329 328 328 329 327 326 329 334 334 334 335 335 333 333 333 333 332 331 330 329 329 327 325 327 329 329 328 326 326 326 326 325 325 325 325 325 325 325 325
333 334 333 330 330 329 328 330 327 327 329 333 333 333 332 334 336 334 335 334 334 333 332 331 329 327 326 327 329 329 328 326 325 325 325 324 324 324 324 324 326 326 326
330 334 335 332 330 329 328 330 326 326 330 333 332 334 332 332 332 331 329 331 329 333 333 331 329 328 327 326 329 329 328 326 325 324 324 324 324 323 324 324 327 327 326
Wind_Speed
11 16 16 19 11 15 16 16 22 27 31 31 28 24 21 18 15 14 16 15 16 16 15 14 15 16 18 16 15 13 13 14 14 11 8 8 11 14 15 13 16 17 17
8 7 5 8 15 15 16 17 22 30 30 31 26 26 20 20 17 15 17 16 17 17 14 13 15 16 17 15 15 14 12 10 10 4 2 2 3 13 17 17 17 21 19
10 8 9 14 23 22 21 21 22 27 25 27 23 21 17 16 18 18 19 20 19 15 13 13 13 12 12 12 10 11 13 11 12 14 5 1 3 1 11 17 19 17 19
8 8 7 9 21 21 22 20 21 25 23 26 23 22 20 11 17 16 16 17 16 12 9 10 10 8 9 7 8 12 14 15 14 9 18 15 1 0 1 5 10 15 14
11 12 9 15 23 26 25 24 26 24 21 19 16 17 18 10 11 12 12 14 10 8 9 7 6 7 8 9 9 10 14 15 15 15 6 19 7 4 2 2 2 10 10
11 7 14 25 22 26 28 28 25 22 17 18 18 16 11 7 13 17 16 12 8 9 8 6 5 7 8 8 8 9 10 11 13 14 13 9 9 8 5 2 2 5 7
9 16 18 16 19 22 27 25 24 19 21 17 16 11 13 11 10 9 8 6 4 4 6 8 7 6 6 7 7 7 7 8 8 8 12 14 17 13 19 7 3 3 6
15 18 16 14 19 23 25 24 23 21 19 19 15 12 8 8 7 5 4 6 5 6 8 8 6 6 5 5 6 6 6 6 6 5 8 9 9 8 11 11 12 4 3
16 15 15 14 21 23 24 26 26 21 18 17 15 13 10 9 8 6 6 6 7 10 9 8 6 5 6 5 6 7 7 6 3 2 3 5 4 12 14 19 25 10 4
15 15 13 14 21 24 28 27 24 22 20 18 16 13 10 10 11 8 7 8 10 9 9 7 6 6 6 5 7 7 8 6 4 3 4 7 6 9 12 9 21 15 17
16 14 14 18 22 24 26 28 25 23 21 19 16 15 13 12 11 9 9 9 12 10 8 7 7 7 5 3 5 5 5 6 4 3 4 4 4 8 6 8 21 20 20
17 15 16 14 19 21 25 27 26 23 22 19 16 15 14 11 9 10 11 12 11 11 9 7 7 6 6 5 4 4 5 4 5 5 6 4 3 7 10 19 20 26 27
18 16 15 14 13 19 21 24 25 23 21 20 17 15 15 10 9 11 12 13 11 10 9 7 12 8 8 6 6 3 2 6 5 5 5 7 8 15 19 21 23 24 28
19 17 15 13 12 20 20 24 23 24 21 19 20 19 12 11 11 11 13 12 12 10 10 12 13 9 9 6 5 3 3 3 7 7 11 9 11 20 20 21 24 27 28
19 17 15 14 12 16 23 25 22 24 19 21 20 18 15 11 11 11 11 7 12 13 17 13 11 10 7 6 5 3 3 4 11 15 15 12 12 19 18 22 25 29 27
19 17 17 15 15 16 21 25 24 24 24 23 22 18 15 11 11 12 10 9 11 17 13 11 14 9 10 6 5 5 6 8 13 17 16 13 15 17 20 23 28 36 35
20 18 17 15 14 20 26 23 27 24 27 22 23 21 18 14 13 12 11 11 17 17 15 15 12 12 11 6 7 8 11 13 15 16 15 15 17 20 23 25 33 30 34
18 15 14 13 21 29 29 25 28 23 28 21 22 23 19 15 15 15 13 13 15 16 16 14 11 14 11 7 8 12 13 16 17 15 16 19 22 27 30 30 31 29 32
14 14 20 25 25 29 31 30 26 23 25 20 23 25 19 16 19 17 16 15 16 17 15 16 13 14 12 9 11 14 15 17 17 16 17 19 23 29 33 35 33 30 27
16 15 26 27 28 31 31 30 25 24 20 25 25 25 23 20 21 18 16 13 13 18 20 16 14 13 12 9 11 14 19 20 19 18 18 16 19 30 36 35 36 30 31
16 27 29 24 27 35 31 26 26 21 21 27 27 25 23 21 18 17 16 15 16 18 19 17 13 12 11 10 12 14 19 21 20 21 17 20 22 30 33 37 36 35 36
7 26 21 23 29 36 31 24 23 23 20 28 27 27 25 22 21 20 18 17 18 17 18 16 13 10 11 12 13 15 16 17 23 22 21 19 23 27 30 31 30 34 34
6 22 23 22 26 33 32 23 28 22 25 31 28 29 28 24 23 24 21 21 20 20 19 19 16 14 12 13 12 17 16 19 25 24 22 20 20 25 25 26 30 30 29
1 5 22 18 19 30 32 25 29 23 29 31 30 30 31 26 23 23 22 23 23 20 18 17 17 16 16 18 17 19 18 21 26 23 20 21 21 22 24 27 31 28 29
5 2 16 20 23 30 32 25 31 24 31 32 32 29 30 26 24 22 21 21 23 23 24 21 23 21 19 23 22 23 26 25 24 22 21 18 21 25 28 29 25 26 28
17 8 18 20 26 30 32 27 33 27 32 27 28 27 29 27 25 19 12 15 15 27 23 22 24 21 21 25 26 25 24 24 25 23 22 19 24 23 24 27 26 26 31
Wind_Direction
225 235 258 255 174 152 153 172 176 184 181 171 169 177 160 161 175 178 182 193 206 210 223 232 233 247 252 260 246 232 242 242 238 243 218 238 243 242 231 230 232 228 223
229 230 214 214 164 151 151 160 169 175 171 167 167 176 173 170 181 190 206 209 194 197 213 239 248 250 254 248 222 231 240 240 218 172 106 326 285 245 235 232 231 239 232
217 217 231 166 154 156 152 150 150 167 161 163 165 164 167 180 195 205 205 203 203 213 226 240 249 256 261 255 250 229 223 224 212 212 162 168 238 178 230 233 238 238 216
224 221 212 143 152 154 150 151 154 154 153 161 161 169 169 168 200 187 191 190 192 204 223 241 250 251 253 237 243 238 228 225 224 219 228 241 296 203 340 204 212 203 213
222 225 204 144 148 146 140 145 149 145 149 165 162 165 163 160 159 187 155 164 177 208 220 237 258 233 227 236 231 221 226 228 230 220 211 230 250 299 210 168 179 198 215
233 136 123 128 131 137 139 142 149 149 147 161 159 154 144 138 152 144 145 153 182 215 229 217 229 223 229 227 233 230 226 222 226 227 230 220 163 218 192 161 217 157 177
130 130 129 131 134 133 135 144 149 147 144 145 154 140 129 125 124 123 137 155 201 220 201 208 199 216 234 232 224 214 207 215 223 235 232 225 227 231 212 183 167 117 84
122 131 134 134 135 133 137 144 149 145 138 137 135 136 134 141 128 150 150 169 178 187 190 178 195 205 210 219 199 205 206 221 224 225 222 236 232 226 203 172 138 106 96
127 130 131 133 134 136 144 148 148 147 143 143 146 145 142 148 148 153 144 150 158 149 160 174 179 189 200 215 204 204 208 217 175 164 177 184 166 158 141 150 155 152 146
123 130 130 131 135 142 149 150 152 154 155 155 152 153 166 167 158 151 153 151 147 162 160 162 177 177 187 180 195 216 216 165 144 123 129 165 183 191 174 169 179 164 147
133 136 132 134 139 141 147 154 156 159 157 156 169 177 171 158 153 151 154 148 150 154 150 161 159 163 169 197 202 187 179 169 159 132 100 107 166 180 206 184 169 157 151
138 136 135 137 139 140 150 155 158 160 159 164 177 162 168 156 153 160 160 171 160 168 149 148 144 152 128 119 150 178 197 194 148 133 106 99 171 192 151 153 151 147 141
135 138 137 140 143 144 148 155 159 161 165 172 169 155 142 146 162 163 166 166 167 173 167 152 132 129 112 113 99 85 99 111 138 114 131 110 127 129 125 129 128 130 131
142 143 140 144 142 147 150 157 162 164 176 174 163 149 148 156 157 164 178 179 180 168 157 135 120 115 108 100 96 96 74 110 127 146 149 145 153 142 128 124 127 130 128
143 147 142 148 143 150 151 162 167 170 174 163 155 149 150 155 162 178 176 197 174 150 140 129 119 111 115 115 117 130 84 114 112 116 135 131 140 154 156 151 144 140 136
147 147 147 151 150 152 152 166 168 171 154 159 149 147 145 158 164 168 167 119 167 147 138 127 127 129 123 127 125 108 109 117 121 120 115 114 131 143 153 161 158 146 139
149 151 152 151 151 149 158 164 160 154 158 158 152 158 154 157 161 160 156 141 141 144 135 132 132 129 126 106 86 103 122 124 127 129 121 117 136 145 148 150 148 136 143
153 147 149 143 149 155 161 157 156 154 161 158 154 162 157 162 162 162 161 153 148 143 139 141 136 140 131 100 86 116 120 120 126 127 126 127 137 143 139 134 135 125 138
151 147 143 146 148 150 156 153 156 164 155 162 155 158 158 151 161 160 161 163 160 154 153 145 134 142 133 105 109 125 128 119 125 131 134 134 141 144 143 129 130 130 136
145 140 140 146 145 152 157 154 159 174 166 170 162 162 162 157 162 159 158 156 152 155 155 143 137 139 136 114 121 135 134 123 125 124 130 136 142 148 149 138 140 139 147
140 140 144 147 150 155 158 156 168 182 184 169 159 164 164 155 158 156 152 147 146 143 144 137 131 136 144 123 133 143 135 132 132 132 131 141 148 150 151 156 156 153 160
126 139 143 146 150 157 160 159 172 190 176 157 157 159 159 153 157 149 147 150 150 153 154 148 136 141 149 139 140 147 131 135 137 133 134 139 152 151 151 159 157 156 156
49 147 146 146 152 159 166 163 178 191 170 156 155 153 156 159 159 152 153 152 158 159 157 159 156 152 154 149 144 151 136 143 138 132 132 136 146 152 159 161 159 148 151
343 161 149 151 152 162 171 177 176 192 169 145 156 159 154 157 160 165 167 165 165 164 167 167 163 158 155 157 155 155 150 144 142 137 133 138 141 151 152 155 161 156 165
345 69 163 160 159 163 175 179 178 190 166 151 157 153 157 162 166 177 182 184 183 179 178 177 169 161 166 169 160 156 157 158 153 149 144 138 146 149 155 159 156 167 169
328 357 174 172 165 165 175 179 180 192 166 153 162 158 161 169 171 167 158 184 194 199 192 184 175 177 170 167 164 160 162 161 161 156 156 147 150 152 160 169 172 176 185